Regional Weather Roundup
Issued by NWS Grand Forks, ND

Home | Current Version | Previous Version | Graphics & Text | Print | Product List | Glossary On
Versions: 1 2 3 4 5 6 7 8 9 10 11 12 13 14 15 16 17 18 19 20 21 22 23 24 25 26 27 28 29 30 31 32 33 34 35 36 37 38 39 40 41 42 43 44 45 46 47 48 49 50
000
ASUS43 KFGF 240710
RWRFGF
PRAIRIE TO PINES  WEATHER ROUNDUP
NATIONAL WEATHER SERVICE EASTERN NORTH DAKOTA/GRAND FORKS ND
200 AM CDT WED MAY 24 2017

 **SATELLITE DATA USED TO AUGMENT SKY COVER AT AUTOMATED STATIONS**
 *****  WEATHER ACROSS EASTERN NORTH DAKOTA  *****

CITY           SKY/WX    TMP DP  RH WIND       PRES   REMARKS
GRAND FORKS    FAIR      44  41  89 CALM      29.90F
GRAND FRKS AFB FAIR      44  41  92 W3        29.90F
DEVILS LAKE    FAIR      43  40  89 SE3       29.90F
FARGO          FAIR      42  40  92 CALM      29.89F
WAHPETON ARPT  FAIR      43  39  87 NE5       29.87F
$$

 ***** WEATHER ACROSS CENTRAL AND WESTERN NORTH DAKOTA  *****

CITY           SKY/WX    TMP DP  RH WIND       PRES   REMARKS
BISMARCK       FAIR      41  37  86 SE5       29.92F
MINOT          FAIR      54  38  54 S12       29.86F
JAMESTOWN      FAIR      37  36  96 CALM      29.90F
MINOT AFB      FAIR      54  39  56 S14       29.84F
GARRISON         N/A     45  37  73 S6        29.88F
WILLISTON      FAIR      57  36  45 S9        29.79F
DICKINSON      FAIR      44  34  67 SE13      29.86F
HETTINGER      FAIR      44  34  67 SE8       29.91F
$$

 *****  OTHER AIRPORT OBSERVATIONS IN OUR AREA  *****

CITY           SKY/WX    TMP DP  RH WIND       PRES   REMARKS
WALHALLA       NOT AVBL
GRAFTON AIRPOR FAIR      41  41 100 S6        29.92F
VALLEY CITY AR FAIR      41  41 100 N6        29.92F
CANDO          NOT AVBL
CAVALIER APRT  FAIR      50  41  71 SW6       29.89F
GWINNER        PTSUNNY   45  43  93 MISG      29.89F
SHEYENNE NWR     N/A     43  42  95 N3        29.95S
ROLLA          FAIR      46  34  61 SW7       29.89F
 ***** THE ABOVE OBSERVATIONS ARE NON NWS ARE NOT QUALITY
       CONTROLLED AND MAY MIS-REPORT RAIN FOR SNOW...
$$

  *****  WEATHER ACROSS NORTHERN MINNESOTA  *****

CITY           SKY/WX    TMP DP  RH WIND       PRES   REMARKS
FLAG ISLAND    FAIR      50  43  76 CALM      29.89F
WARROAD        FAIR      43  37  81 W5        29.91F
ROSEAU         FAIR      43  37  81 CALM      29.91S
HALLOCK        FAIR      43  39  87 S7        29.89F
THF RVR FALLS  FAIR      41  39  93 CALM      29.91
BAUDETTE       FAIR      38  37  97 CALM      29.90F
WASKISH        FAIR      36  36 100 CALM      29.90S FOG
CROOKSTON      FAIR      45  43  93 CALM      29.91F
STEPHEN NDAWN    N/A     41  39  93 SE3         N/A
GREENBUSH NDAW   N/A     43  41  93 S3          N/A
$$
  *****  WEATHER ACROSS CENTRAL AND WEST MINNESOTA  *****

CITY           SKY/WX    TMP DP  RH WIND       PRES   REMARKS
FOSSTON        FAIR      37  36  93 CALM      29.90F
BEMIDJI        FAIR      34  34  98 CALM      29.88F
PARK RAPIDS    MOCLDY    47  41  80 N7        29.87F
ELBOW LAKE     FAIR      45  44  96 E3        29.87F
WADENA         CLOUDY    48  43  81 N5        29.86F
DETROIT LAKES  FAIR      45  43  93 NE5       29.89F
MOORHEAD       FAIR      41  39  93 N5        29.90S
FERGUS FALLS   FAIR      45  45 100 NE3       29.87S
MORRIS MN      FAIR      45  43  93 NW7       29.85F
STAPLES        CLOUDY    48  43  81 CALM      29.86F
$$
  *****  WEATHER ELSEWHERE ACROSS MINNESOTA  *****

CITY           SKY/WX    TMP DP  RH WIND       PRES   REMARKS
DULUTH         CLOUDY    47  45  93 NE6       29.84F
INTRNTL FALLS  FAIR      35  32  88 CALM      29.89F
ELY            FAIR      39  37  93 CALM      29.88F
CLOQUET        CLOUDY    46  43  87 N5        29.85F
WHEATON        FAIR      43  43 100 CALM      29.89F
BRAINERD       CLOUDY    49  47  93 CALM      29.87F
HIBBING        FAIR      39  38  96 CALM      29.87F
ALEXANDRIA     MOCLDY    48  45  89 NE8       29.86F
SAINT CLOUD    MOCLDY    49  45  86 N7        29.84F
MINNEAPOLIS    FAIR      49  43  80 N8        29.80F
$$

  *****  WEATHER ACROSS SOUTH DAKOTA  *****

CITY           SKY/WX    TMP DP  RH WIND       PRES   REMARKS
SIOUX FALLS    FAIR      47  45  93 N8        29.84F
BROOKINGS      FAIR      43  42  97 N6        29.86F
WATERTOWN      FAIR      39  38  96 NE5       29.86F
HURON          FAIR      37  37 100 NW6       29.89F
SISSETON         N/A     42  41  96 NW6       29.86F
ABERDEEN       FAIR      40  36  86 NW7       29.90F
MITCHELL       FAIR      44  42  93 W7        29.89F
PIERRE         FAIR      39  36  89 W3        29.91F
MOBRIDGE       FAIR      38  34  85 CALM      29.90F
RAPID CITY     FAIR      40  34  79 SE3       29.93F
$$

  *****  SOME WEATHER IN NEARBY STATES *****

CITY           SKY/WX    TMP DP  RH WIND       PRES   REMARKS
GLASGOW MT     FAIR      57  35  43 SE16      29.65F
GREAT FALLS MT FAIR      65  37  35 SW14      29.60F
CHEYENNE WY    FAIR      36  32  85 W6        30.04F
SCOTTSBLUFF NE FAIR      44  38  79 CALM      29.98F
OMAHA NE       CLOUDY    51  46  83 NW9       29.79F
DES MOINES IA  LGT RAIN  51  49  92 NW6       29.70F FOG
DAVENPORT IA   FAIR      51  48  89 NW5       29.66F
CHICAGO IL     CLOUDY    55  52  89 E7        29.64F
EAU CLAIRE WI  FAIR      48  44  86 N6        29.75F
LA CROSSE WI   CLOUDY    53  48  83 N6        29.72F
$$

  *****  SOME NATIONAL WEATHER *****

CITY           SKY/WX    TMP DP  RH WIND       PRES   REMARKS
LA GUARDIA NY  CLOUDY    60  51  72 E3        29.75R
RALEIGH NC     CLOUDY    65  65 100 NW3       29.67S FOG
ATLANTA GA     CLOUDY    66  63  90 S6        29.66F
NEW ORLEANS LA CLOUDY    72  67  84 W7        29.73F
OKLAHOMA CITY  CLOUDY    55  47  74 NW8       29.88F
ALBUQUERQUE NM FAIR      61  27  27 E8        30.08R
SALT LAKE CITY FAIR      66  37  34 SE10      29.96F
LOS ANGELES CA FAIR      59  56  89 W5        29.91F
BOISE ID       FAIR      68  43  40 SE12      29.78F
SEATTLE WA     CLOUDY    53  41  63 VRB3      30.06R
$$

*** WEATHER ACROSS MANITOBA...SASKATCHEWAN AND ONTARIO ***
                ***ONTARIO***

CITY           SKY/WX    TMP DP  RH WIND       PRES   REMARKS
GERALDTON      CLEAR     36  34  93 N5        29.90F
THUNDER BAY    MOCLDY    45  41  87 CALM      29.87F
SIOUX LOOKOUT  CLEAR     34  34 100 NE2       29.89F
TORONTO        MOCLDY    59  52  77 N5        29.72S
BIG TROUT LK   CLEAR     36  28  75 SE5       29.91F
PICKLE LAKE    NOT AVBL
DRYDEN         CLEAR     45  39  81 SE3       29.89F
KENORA         CLEAR     48  41  76 SW5       29.90F
$$
                *** MANITOBA***

CITY           SKY/WX    TMP DP  RH WIND       PRES   REMARKS
BRANDON        PTCLDY    55  34  44 S10       29.83F
DAUPHIN        CLEAR     61  34  36 S18       29.75F
ISLAND LAKE    PTCLDY    50  34  53 SE8       29.80F
PILOT MOUND      N/A     43  32  65 S6          N/A
THE PAS        CLOUDY    61  39  44 SE14      29.59F
THOMPSON       CLOUDY    55  36  47 S9        29.62F
WINNIPEG       PTCLDY    48  39  71 S7        29.86F
LYNN LAKE      PTCLDY    57  39  51 S8        29.47F
CHURCHILL      CLOUDY    43  36  75 S10       29.62F
GILLAM         CLOUDY    54  34  47 S9        29.71F
$$
                ***SASKATCHEWAN***

CITY           SKY/WX    TMP DP  RH WIND       PRES   REMARKS
ESTEVAN        PTCLDY    50  37  62 S12       29.77F
KINDERSLEY     CLOUDY    64  39  39 S21G26    29.34F
LLOYDMINSTER   CLEAR     64  45  48 S15G23    29.22F
PRINCE ALBERT  PTCLDY    63  37  39 S13G20    29.45F
REGINA         CLEAR     55  34  44 S20G29    29.65F
YORKTON          N/A     55  36  47 S10       29.70F
N. BATTLEFORD  CLOUDY    64  36  34 SE16G23   29.35F
LA RONGE       CLOUDY    66  36  32 SW6       29.44F
SASKATOON      MOCLDY    63  34  34 S22G30    29.45F
SWIFT CURRENT  CLOUDY    57  32  38 S24G30    29.49F
$$
NOTE: THESE ARE AUTOMATED STATIONS WITH LIMITED QUALITY CONTROL
      "FAIR" INDICATES FEW OR NO CLOUDS BELOW 12,000 FEET WITH NO
      SIGNIFICANT WEATHER AND/OR OBSTRUCTIONS TO VISIBILITY.
      SKY/WX - SKY CONDITION AND SIGNIFICANT WEATHER.
      TMP - AIR TEMPERATURE.    DP   - DEWPOINT TEMPERATURE.
      RH  - RELATIVE HUMIDITY.  PRES - PRESSURE.
      HX  - HEAT INDEX.         WCI  - WIND CHILL INDEX.
$




USA.gov is the U.S. government's official web portal to all federal, state and local government web resources and services.